This demonstration page uses our WeatherBlox Daily Observations layout. Learn more.

Left ArrowRight Arrow

Hourly Observations for July 30, 2015

Temp ( °F °C ) Dew Point ( °F °C ) Humidity (%) Winds ( mph kmh ) Pressure ( in mb ) Visibility ( mi km ) Precip ( " mm )
12:21 am 00:21 Mostly Cloudy 76 24.4 73 22.8 91 91 W 3 6 30.00 1016 10 16 N/A
12:28 am 00:28 Mostly Cloudy 76 24.4 73 22.8 91 91 W 5 7 30.00 1016 10 16 N/A
12:53 am 00:53 Partly Cloudy 76 24.4 73 22.8 91 91 W 5 7 29.98 1015 9 14 N/A
1:51 am 01:51 Mostly Cloudy 77 25 72 22 83 83 WNW 6 9 30.00 1016 10 16 N/A
1:53 am 01:53 Cloudy 77 25 71 21.7 82 82 WNW 7 11 29.98 1015 10 16 N/A
2:17 am 02:17 Cloudy 77 25 68 20 74 74 WNW 7 11 30.00 1016 10 16 N/A
2:53 am 02:53 Cloudy 76 24.4 68 20 77 77 WNW 6 9 29.98 1015 10 16 N/A
3:53 am 03:53 Cloudy 74 23.3 67 19.4 79 79 NW 7 11 29.99 1016 10 16 N/A
4:53 am 04:53 Partly Cloudy 72 22.2 63 17.2 73 73 NW 8 13 30.01 1016 10 16 N/A
5:53 am 05:53 Clear 68 20 63 17.2 84 84 WNW 5 7 30.02 1017 10 16 N/A
6:53 am 06:53 Sunny 65 18.3 62 16.7 90 90 NW 3 6 30.04 1017 10 16 N/A
7:53 am 07:53 Sunny 70 21.1 61 16.1 73 73 NW 6 9 30.04 1017 10 16 N/A
8:53 am 08:53 Sunny 73 22.8 62 16.7 69 69 NW 8 13 30.06 1018 10 16 N/A
9:53 am 09:53 Sunny 77 25 61 16.1 58 58 N 6 9 30.06 1018 10 16 N/A
10:53 am 10:53 Sunny 80 26.7 62 16.7 54 54 NNW 3 6 30.06 1018 10 16 N/A
11:53 am 11:53 Sunny 82 27.8 60 15.6 47 47 N 8 13 30.07 1018 10 16 N/A
12:53 pm 12:53 Sunny 84 28.9 59 15 43 43 VRB 7 11 30.07 1018 10 16 N/A
1:53 pm 13:53 Sunny 84 28.9 59 15 43 43 NW 12 19 30.06 1018 10 16 N/A
2:53 pm 14:53 Sunny 84 28.9 60 15.6 44 44 VRB 7 11 30.05 1018 10 16 N/A
3:53 pm 15:53 Mostly Sunny 85 29.4 59 15 42 42 W 7 11 30.05 1018 10 16 N/A
4:53 pm 16:53 Sunny 85 29.4 59 15 42 42 NW 12 19 30.04 1017 10 16 N/A
5:53 pm 17:53 Sunny 85 29.4 58 14.4 40 40 W 12 19 30.03 1017 10 16 N/A
6:53 pm 18:53 Sunny 84 28.9 59 15 43 43 WNW 14 22 30.02 1017 10 16 N/A
7:53 pm 19:53 Sunny 81 27.2 59 15 47 47 WNW 12 19 30.02 1017 10 16 N/A
8:53 pm 20:53 Clear 75 23.9 61 16.1 62 62 WNW 5 7 30.02 1017 10 16 N/A
9:53 pm 21:53 Clear 67 19.4 62 16.7 84 84 N N/A 30.03 1017 10 16 N/A
10:53 pm 22:53 Clear 66 18.9 63 17.2 90 90 N N/A 30.05 1018 10 16 N/A
11:53 pm 23:53 Clear 65 18.3 62 16.7 90 90 N N/A 30.06 1018 10 16 N/A

Powered by AerisWeather